Location: Grasslands National Park East Block
(49.0708°N, 106.5295°W)
Time: 12:18:40
(UTC-06:00)

Tiros 1 despin weight - All Passes

Search period start: 18 October 2019 00:00
Search period end: 28 October 2019 00:00
Orbit: 594 x 643 km, 48.2° (Epoch: 17 October)

Date Brightness Start Highest point End Pass type
(mag) Time Alt. Az. Time Alt. Az. Time Alt. Az.
18 Oct - 01:55:14 10° S 01:58:23 18° SE 02:01:32 10° E night (unlit)
18 Oct - 03:34:44 10° SW 03:39:17 52° SSE 03:43:51 10° E visible
18 Oct - 05:16:01 10° W 05:20:44 82° S 05:25:26 10° E visible
18 Oct - 06:57:36 10° W 07:02:14 59° SSW 07:06:49 10° ESE visible
18 Oct - 08:39:39 10° W 08:43:15 22° SW 08:46:48 10° SSE daylight
19 Oct - 02:10:38 10° SSW 02:14:38 28° SSE 02:18:39 10° E night (unlit)
19 Oct - 03:51:07 10° WSW 03:55:47 68° SSE 04:00:27 10° E visible
19 Oct - 05:32:37 10° W 05:37:19 79° S 05:42:01 10° E visible
19 Oct - 07:14:15 10° W 07:18:41 43° SSW 07:23:06 10° SE daylight
19 Oct - 08:57:14 10° WSW 08:59:25 13° SW 09:01:36 10° SSW daylight
20 Oct - 00:48:06 10° SSE 00:50:16 13° SE 00:52:25 10° ESE night (unlit)
20 Oct - 02:26:35 10° SW 02:30:59 42° SSE 02:35:26 10° E visible
20 Oct - 04:07:39 10° W 04:12:21 79° S 04:17:03 10° E visible
20 Oct - 05:49:13 10° W 05:53:54 68° SSW 05:58:32 10° ESE visible
20 Oct - 07:31:01 10° W 07:35:03 29° SSW 07:39:03 10° SSE daylight
21 Oct - 01:02:52 10° SSW 01:06:26 22° SE 01:10:01 10° E night (unlit)
21 Oct - 02:42:50 10° WSW 02:47:26 59° SSE 02:52:04 10° E visible
21 Oct - 04:24:14 10° W 04:28:57 82° S 04:33:39 10° E visible
21 Oct - 06:05:49 10° W 06:10:24 52° SSW 06:14:56 10° SE visible
21 Oct - 07:48:07 10° W 07:51:18 18° SW 07:54:27 10° S daylight
22 Oct - 01:18:32 10° SW 01:22:43 34° SSE 01:26:57 10° E night (unlit)
22 Oct - 02:59:18 10° WSW 03:03:58 73° S 03:08:40 10° E visible
22 Oct - 04:40:50 10° W 04:45:31 75° S 04:50:13 10° ESE visible
22 Oct - 06:22:30 10° W 06:26:49 36° SSW 06:31:06 10° SE visible
22 Oct - 08:06:55 10° SW 08:07:25 10° SW 08:07:55 10° SW daylight
22 Oct - 23:55:23 10° S 23:58:16 16° SE 00:01:11 10° E night (unlit)
23 Oct - 01:34:37 10° SW 01:39:07 49° SSE 01:43:39 10° E night (unlit)
23 Oct - 03:15:51 10° W 03:20:33 81° S 03:25:15 10° E visible
23 Oct - 04:57:25 10° W 05:02:04 62° SSW 05:06:42 10° ESE visible
23 Oct - 06:39:22 10° W 06:43:07 24° SW 06:46:51 10° SSE visible
24 Oct - 00:10:38 10° SSW 00:14:30 26° SE 00:18:24 10° E night (unlit)
24 Oct - 01:50:59 10° WSW 01:55:36 66° SSE 02:00:17 10° E night (unlit)
24 Oct - 03:32:26 10° W 03:37:08 80° S 03:41:51 10° E visible
24 Oct - 05:14:03 10° W 05:18:32 45° SSW 05:23:00 10° SE visible
24 Oct - 06:56:46 10° WSW 06:59:20 15° SW 07:01:52 10° S visible
24 Oct - 22:48:31 10° SSE 22:50:10 12° SE 22:51:49 10° ESE night (unlit)
25 Oct - 00:26:30 10° SW 00:30:50 40° SSE 00:35:13 10° E night (unlit)
25 Oct - 02:07:29 10° WSW 02:12:09 78° S 02:16:52 10° E night (unlit)
25 Oct - 03:49:02 10° W 03:53:42 70° SSW 03:58:23 10° ESE visible
25 Oct - 05:30:47 10° W 05:34:55 31° SSW 05:39:01 10° SSE visible
25 Oct - 23:02:57 10° S 23:06:19 20° SE 23:09:43 10° E night (unlit)
26 Oct - 00:42:43 10° WSW 00:47:16 56° SSE 00:51:52 10° E night (unlit)
26 Oct - 02:24:04 10° W 02:28:45 82° S 02:33:27 10° E night (unlit)
26 Oct - 04:05:38 10° W 04:10:13 55° SSW 04:14:48 10° ESE visible
26 Oct - 05:47:48 10° W 05:51:10 20° SW 05:54:32 10° S visible
26 Oct - 23:18:30 10° SSW 23:22:34 32° SSE 23:26:42 10° E night (unlit)
27 Oct - 00:59:09 10° WSW 01:03:47 71° SSE 01:08:28 10° E night (unlit)
27 Oct - 02:40:39 10° W 02:45:20 77° S 02:50:02 10° ESE night (unlit)
27 Oct - 04:22:17 10° W 04:26:39 39° SSW 04:31:00 10° SE visible
27 Oct - 06:05:50 10° WSW 06:07:19 11° SW 06:08:47 10° SSW visible
27 Oct - 21:55:35 10° S 21:58:10 15° SE 22:00:47 10° ESE night (unlit)
27 Oct - 23:34:32 10° SW 23:38:57 46° SSE 23:43:26 10° E night (unlit)
